Location: Unspecified
(54.1780°N, 0.0000°E)
Time: 13:09:22
(UTC+00:00)

Altair - Pass Details

Date: 19 June 2019
Orbit: 1501 x 1683 km, 47.2° (Epoch: 22 July)

Event Time Altitude Azimuth Distance (km) Brightness Sun altitude
Rises 02:18:01 0° 282° (WNW) 4,859 9.9 -7.0°
Reaches altitude 10° 02:21:23 10° 275° (W) 3,893 9.4 -6.7°
Maximum altitude 02:30:15 38° 212° (SSW) 2,368 8.0 -6.0°
Drops below altitude 10° 02:39:14 10° 149° (SSE) 3,940 9.4 -5.3°
Sets 02:42:41 0° 142° (SE) 4,924 10.0 -5.0°
